Home   Weather   Oviedo   Past weeks

Flag for Spain Past Weather in Oviedo, Spain — Yesterday and Last 2 Weeks

Now
50 °F

Cool.


Feels Like: 50 °F
Forecast: 47 / 63 °F
Wind: 2 mph from Northwest

Location: Oviedo

Current Time: Dec 4, 2016 at 1:13:47 am

Latest Report: Dec 4, 2016 at 12:00 am


Visibility: 12 mi

Pressure: 29.72 "Hg

Humidity: 85%

Dew Point: 46 °F

Location of OviedoLocation

Past Weather in Oviedo — Graph

°F

Oviedo Temperature Yesterday

Maximum temperature yesterday: 57 °F (at 4:00 pm)
Minimum temperature yesterday: 42 °F (at 8:00 am)
Average temperature yesterday: 48 °F

High & Low Weather Summary for the Past Weeks

 TemperatureHumidityPressure
High62 °F (Nov 30, 4:00 pm)100% (Nov 23, 8:00 am)30.33 "Hg (Nov 23, 8:00 am)
Low37 °F (Nov 22, 9:00 am)47% (Nov 30, 5:00 pm)29.21 "Hg (Nov 21, 2:00 am)
Average48 °F81%29.87 "Hg
* Reported Nov 18 11:00 pm — Dec 3 11:00 pm, Oviedo, Weather by CustomWeather, © 2016

Note: Actual official high and low records may vary slightly from our data, if they occured in-between our weather recording intervals... More about our weather records

Advertising

Oviedo Weather History for the Previous 24 Hours

Scroll right to see more
 ConditionsComfort  
Time TempWeatherWind HumidityBarometerVisibility
11:00 pm
Sat, Dec 3
50 °FCool.3 mph81%29.72 "Hg11 mi
10:00 pm51 °FPassing clouds.5 mph87%29.73 "Hg11 mi
9:00 pm50 °FCool.1 mph93%29.74 "Hg8 mi
8:00 pm50 °FCool.2 mph94%29.75 "Hg4 mi
7:00 pm52 °FPassing clouds.3 mph90%29.74 "Hg6 mi
6:00 pm53 °FCool.5 mph89%29.74 "Hg9 mi
5:00 pm55 °FCool.5 mph84%29.74 "Hg11 mi
4:00 pm57 °FPartly sunny.3 mph73%29.75 "Hg12 mi
3:00 pm56 °FCool.2 mph68%29.77 "Hg12 mi
2:00 pm54 °FCool.1 mph69%29.79 "Hg12 mi
1:00 pm51 °FScattered clouds.1 mph78%29.82 "Hg12 mi
12:00 pm51 °FCool.1 mph72%29.85 "Hg12 mi
11:00 am49 °FCool.3 mph75%29.87 "Hg12 mi
10:00 am43 °FPassing clouds.6 mph87%29.89 "Hg12 mi
9:00 am42 °FQuite cool.6 mph88%29.90 "Hg11 mi
8:00 am42 °FQuite cool.6 mph88%29.91 "Hg12 mi
7:00 am42 °FClear.5 mph90%29.92 "Hg6 mi
6:00 am43 °FQuite cool.5 mph89%29.93 "Hg12 mi
5:00 am43 °FQuite cool.6 mph91%29.93 "Hg9 mi
4:00 am44 °FClear.5 mph91%29.94 "Hg6 mi
3:00 am44 °FQuite cool.5 mph93%29.95 "Hg7 mi
2:00 am46 °FCool.6 mph92%29.96 "Hg6 mi
1:00 am47 °FClear.5 mph91%29.97 "Hg6 mi
Weather by CustomWeather, © 2016

See weather overviewHow to use our weather pages